• In Hungary
  • List of Countries
  • For 7 days
  • Water Temperature
  • Satellite Maps
  • Weather Map
  • News
  • Weather Widgets
  • user-avatar
    Login

    Hourly Weather Solden

    Today, 20 August, Sunday

    Time Temperature Precipitation Wind Pressure Humidity
    00:00 +4°C° 0.1 mm 2 mps 584 mmHg 92%
    01:00 +3°C° 0 mm 2 mps 584 mmHg 91%
    02:00 +3°C° 0 mm 2 mps 584 mmHg 91%
    03:00 +2°C° 0 mm 2 mps 584 mmHg 91%
    04:00 +2°C° 0 mm 2 mps 584 mmHg 92%
    05:00 +2°C° 0 mm 2 mps 584 mmHg 89%
    06:00 +3°C° 0 mm 2 mps 585 mmHg 86%
    07:00 +3°C° 0 mm 2 mps 585 mmHg 83%
    08:00 +5°C° 0 mm 2 mps 586 mmHg 73%
    09:00 +7°C° 0 mm 2 mps 587 mmHg 63%
    10:00 +9°C° 0 mm 2 mps 588 mmHg 53%
    11:00 +10°C° 0 mm 2 mps 589 mmHg 48%
    12:00 +13°C° 0 mm 2 mps 589 mmHg 44%
    13:00 +14°C° 0 mm 2 mps 590 mmHg 39%
    14:00 +14°C° 0 mm 2 mps 590 mmHg 40%
    15:00 +14°C° 0 mm 2 mps 590 mmHg 40%
    16:00 +13°C° 0 mm 2 mps 589 mmHg 41%
    17:00 +10°C° 0 mm 2 mps 589 mmHg 50%
    18:00 +8°C° 0 mm 2 mps 588 mmHg 60%
    19:00 +7°C° 0 mm 1 mps 587 mmHg 69%
    20:00 +6°C° 0 mm 1 mps 587 mmHg 73%
    21:00 +5°C° 0 mm 1 mps 587 mmHg 78%
    22:00 +4°C° 0 mm 1 mps 587 mmHg 82%
    23:00 +4°C° 0 mm 1 mps 586 mmHg 83%

    Tomorrow, 21 August, Monday

    Time Temperature Precipitation Wind Pressure Humidity
    00:00 +3°C° 0 mm 1 mps 586 mmHg 84%
    01:00 +3°C° 0 mm 1 mps 586 mmHg 84%
    02:00 +2°C° 0 mm 1 mps 586 mmHg 83%
    03:00 +2°C° 0 mm 1 mps 585 mmHg 82%
    04:00 +2°C° 0 mm 1 mps 585 mmHg 80%
    05:00 +3°C° 0 mm 1 mps 586 mmHg 74%
    06:00 +4°C° 0 mm 1 mps 586 mmHg 69%
    07:00 +5°C° 0 mm 1 mps 587 mmHg 63%
    08:00 +8°C° 0 mm 1 mps 588 mmHg 53%
    09:00 +10°C° 0 mm 1 mps 589 mmHg 44%
    10:00 +13°C° 0 mm 1 mps 590 mmHg 34%
    11:00 +14°C° 0 mm 2 mps 590 mmHg 33%
    12:00 +15°C° 0 mm 2 mps 591 mmHg 33%
    13:00 +15°C° 0 mm 2 mps 591 mmHg 32%
    14:00 +15°C° 0 mm 2 mps 590 mmHg 35%
    15:00 +14°C° 0 mm 2 mps 590 mmHg 39%
    16:00 +14°C° 0 mm 2 mps 589 mmHg 42%
    17:00 +12°C° 0.1 mm 2 mps 589 mmHg 51%
    18:00 +11°C° 0.1 mm 1 mps 588 mmHg 60%
    19:00 +9°C° 0.1 mm 1 mps 587 mmHg 69%
    20:00 +8°C° 0.1 mm 1 mps 587 mmHg 72%
    21:00 +8°C° 0.1 mm 1 mps 587 mmHg 76%
    22:00 +7°C° 0.1 mm 1 mps 587 mmHg 79%
    23:00 +6°C° 0 mm 1 mps 587 mmHg 80%

    Day after tomorrow, 22 August, Tuesday

    Time Temperature Precipitation Wind Pressure Humidity
    00:00 +5°C° 0 mm 1 mps 587 mmHg 82%
    01:00 +5°C° 0 mm 1 mps 586 mmHg 84%
    02:00 +4°C° 0 mm 1 mps 586 mmHg 84%
    03:00 +4°C° 0 mm 1 mps 586 mmHg 84%
    04:00 +4°C° 0 mm 1 mps 585 mmHg 84%
    05:00 +5°C° 0 mm 1 mps 586 mmHg 81%
    06:00 +6°C° 0 mm 1 mps 587 mmHg 77%
    07:00 +7°C° 0 mm 0 mps 587 mmHg 73%
    08:00 +10°C° 0 mm 1 mps 588 mmHg 67%
    09:00 +12°C° 0 mm 1 mps 589 mmHg 60%
    10:00 +14°C° 0 mm 1 mps 590 mmHg 53%
    11:00 +15°C° 0 mm 1 mps 590 mmHg 51%
    12:00 +16°C° 0 mm 1 mps 590 mmHg 49%
    13:00 +16°C° 0 mm 2 mps 590 mmHg 48%
    14:00 +16°C° 0 mm 2 mps 590 mmHg 49%
    15:00 +16°C° 0 mm 2 mps 590 mmHg 50%
    16:00 +16°C° 0 mm 2 mps 589 mmHg 52%
    17:00 +14°C° 0 mm 2 mps 588 mmHg 61%
    18:00 +12°C° 0 mm 2 mps 587 mmHg 71%
    19:00 +10°C° 0 mm 1 mps 587 mmHg 81%
    20:00 +9°C° 0 mm 1 mps 586 mmHg 85%
    21:00 +8°C° 0 mm 1 mps 586 mmHg 89%
    22:00 +6°C° 0 mm 0 mps 586 mmHg 92%
    23:00 +6°C° 0 mm 1 mps 585 mmHg 92%

    23 August, Wednesday

    Time Temperature Precipitation Wind Pressure Humidity
    00:00 +6°C° 0 mm 1 mps 585 mmHg 92%
    01:00 +6°C° 0 mm 1 mps 585 mmHg 92%
    02:00 +6°C° 0 mm 1 mps 585 mmHg 91%
    03:00 +5°C° 0 mm 1 mps 584 mmHg 89%
    04:00 +5°C° 0 mm 1 mps 584 mmHg 88%
    05:00 +7°C° 0 mm 1 mps 585 mmHg 82%
    06:00 +8°C° 0 mm 1 mps 586 mmHg 77%
    07:00 +10°C° 0 mm 1 mps 587 mmHg 71%
    08:00 +12°C° 0 mm 1 mps 588 mmHg 61%
    09:00 +14°C° 0 mm 1 mps 589 mmHg 51%
    10:00 +18°C° 0 mm 1 mps 590 mmHg 41%
    11:00 +19°C° 0 mm 1 mps 590 mmHg 39%
    12:00 +19°C° 0 mm 1 mps 590 mmHg 37%
    13:00 +19°C° 0 mm 2 mps 591 mmHg 34%
    14:00 +19°C° 0.1 mm 2 mps 590 mmHg 37%
    15:00 +19°C° 0.1 mm 2 mps 590 mmHg 39%
    16:00 +18°C° 0.1 mm 2 mps 590 mmHg 41%
    17:00 +16°C° 0.1 mm 2 mps 589 mmHg 52%
    18:00 +14°C° 0.1 mm 1 mps 588 mmHg 64%
    19:00 +11°C° 0.1 mm 1 mps 587 mmHg 75%
    20:00 +10°C° 0 mm 1 mps 587 mmHg 78%
    21:00 +9°C° 0 mm 1 mps 587 mmHg 81%
    22:00 +7°C° 0 mm 0 mps 587 mmHg 84%
    23:00 +8°C° 0 mm 1 mps 587 mmHg 84%

    24 August, Thursday

    Time Temperature Precipitation Wind Pressure Humidity
    00:00 +8°C° 0 mm 1 mps 587 mmHg 84%
    01:00 +8°C° 0 mm 1 mps 587 mmHg 83%
    02:00 +8°C° 0 mm 1 mps 586 mmHg 84%
    03:00 +8°C° 0 mm 1 mps 586 mmHg 84%
    04:00 +8°C° 0 mm 1 mps 586 mmHg 85%
    05:00 +9°C° 0 mm 1 mps 587 mmHg 81%
    06:00 +10°C° 0 mm 1 mps 587 mmHg 78%
    07:00 +11°C° 0 mm 1 mps 588 mmHg 75%
    08:00 +13°C° 0 mm 1 mps 589 mmHg 67%
    09:00 +15°C° 0 mm 1 mps 590 mmHg 59%
    10:00 +18°C° 0 mm 1 mps 591 mmHg 51%
    11:00 +18°C° 0.3 mm 1 mps 591 mmHg 51%
    12:00 +18°C° 0.3 mm 1 mps 591 mmHg 52%
    13:00 +17°C° 0.3 mm 2 mps 591 mmHg 52%
    14:00 +17°C° 0.8 mm 2 mps 590 mmHg 56%
    15:00 +16°C° 0.8 mm 2 mps 590 mmHg 59%
    16:00 +16°C° 0.8 mm 1 mps 590 mmHg 63%
    17:00 +14°C° 0.7 mm 1 mps 589 mmHg 69%
    18:00 +13°C° 0.7 mm 1 mps 588 mmHg 76%
    19:00 +11°C° 0.7 mm 1 mps 588 mmHg 83%
    20:00 +11°C° 0.4 mm 1 mps 588 mmHg 85%
    21:00 +10°C° 0.4 mm 1 mps 588 mmHg 87%
    22:00 +9°C° 0.4 mm 1 mps 588 mmHg 89%
    23:00 +9°C° 0.1 mm 1 mps 588 mmHg 89%

    25 August, Friday

    Time Temperature Precipitation Wind Pressure Humidity
    00:00 +9°C° 0.1 mm 1 mps 587 mmHg 90%
    01:00 +9°C° 0.1 mm 1 mps 587 mmHg 90%
    02:00 +8°C° 0 mm 1 mps 587 mmHg 90%
    03:00 +8°C° 0 mm 1 mps 587 mmHg 89%
    04:00 +8°C° 0 mm 1 mps 587 mmHg 89%
    05:00 +9°C° 0 mm 1 mps 587 mmHg 86%
    06:00 +10°C° 0 mm 1 mps 588 mmHg 83%
    07:00 +11°C° 0 mm 1 mps 588 mmHg 80%
    08:00 +13°C° 0 mm 1 mps 589 mmHg 70%
    09:00 +15°C° 0 mm 1 mps 590 mmHg 61%
    10:00 +18°C° 0 mm 1 mps 591 mmHg 51%
    11:00 +19°C° 0.1 mm 1 mps 591 mmHg 49%
    12:00 +19°C° 0.1 mm 2 mps 591 mmHg 47%
    13:00 +19°C° 0.1 mm 2 mps 591 mmHg 45%
    14:00 +19°C° 0.3 mm 2 mps 591 mmHg 47%
    15:00 +19°C° 0.3 mm 2 mps 591 mmHg 49%
    16:00 +18°C° 0.3 mm 2 mps 590 mmHg 52%
    17:00 +16°C° 0.3 mm 2 mps 589 mmHg 61%
    18:00 +14°C° 0.3 mm 2 mps 588 mmHg 71%
    19:00 +12°C° 0.3 mm 1 mps 587 mmHg 81%
    20:00 +11°C° 0.2 mm 1 mps 587 mmHg 84%
    21:00 +9°C° 0.2 mm 2 mps 587 mmHg 87%
    22:00 +8°C° 0.2 mm 2 mps 587 mmHg 91%
    23:00 +8°C° 0 mm 2 mps 587 mmHg 90%
    Show more